CZ-6A DEB, 54974

Orbit data source: Space-Track

CZ-6A DEB, 54974 is space debris in SSO originally from a launch on Fri, 11 Nov 2022 UTC launched from the Taiyaun Space Center, China (TSC). Debris objects in space refer to the collection of defunct objects orbiting the Earth. Examples of debris include non-operational satellites, rocket bodies, and fragments generated from explosions, collisions, or faulty payload assembly.

Loading next visibility...
Identifier
54974, 2022-151TP
Orbit
SSO
Country
Flag of CNCN / PRC
Related business
Manufacturer
SAST
Mission
Spacecraft
Bus & Motor
Unknown
Mass
Unknown
Launch date (UTC)
2022-11-11 (4 years ago)
Launch vehicle
Unknown
Launch site
Taiyaun Space Center, China (TSC)
Object type
Payload
Rocket body
Debris
Shape & HBR
Unknown shape, 0.1 m
Radar Cross Section
Small (<0.1 m²)

Expand to show TLE details & history
Last TLE update: 12 hours ago

TLE from 12 hours ago
0 CZ-6A DEB
1 54974U 22151TP  26206.60469597  .00004878  00000-0  10271-2 0  9992
2 54974  98.6240 261.8660 0089779 200.4506 159.3088 14.57468480194551
Epoch: 2026-07-25T14:30Z
TLE epoch observation values (Epoch: 2026-07-25T14:30:45.731Z)
Latitude
-0.00007°
Longitude
100.86088°
Altitude
763.87 km
Speed
7.441 km/s
True Right ascension
17h 27m 27s
True Declination
0° 00' 00"
Sunlit
Object was in full shadow at epoch
Visualization orbit readout
Latitude
Unknown
Longitude
Unknown
Altitude
Unknown
Speed
Unknown
Apparent Right ascension
Unknown
Apparent Declination
Unknown
Sunlit
N/A
Visualization observer readout
Local Sidereal Time
16:09:50
Azimuth
Unknown
Elevation
Unknown
Doppler factor
Unknown
Orbital elements
Apogee altitude
761.997 km
Perigee altitude
634.931 km
Semi-major axis
7,076.601 km
Eccentricity
0.00898
Inclination
98.624°
RAAN
261.866°
Arg. of periapsis
200.4506°
True anomaly
159.66852°
Mean anomaly
159.3088°
Eccentric anomaly
159.48904°
Mean motion
3.64591 °/min
Orbital period
98.74 mins
BSTAR
0.0010271
Loading maneuver chart data...
Computing Atmospheric mass density...
Loading historical data...
Loading historical data...
Loading historical data...
Loading historical data...
Loading historical data...
Loading historical data...
Loading historical data...

Documentation

Showing up to 5 results
|